Weather History for Port Angeles, WA

Change the Weather History Date:

Monday, February 3, 2014

  Actual Average Record
Temperature  
Mean Temperature 32 °F -  
Max Temperature 39 °F 46 °F 65 °F (1963)
Min Temperature 25 °F 34 °F 12 °F (1989)
Degree Days  
Heating Degree Days 33    
Moisture  
Dew Point 17 °F    
Average Humidity 52    
Maximum Humidity 72    
Minimum Humidity 33    
Precipitation  
Precipitation 0.00 in - - ()
Sea Level Pressure  
Sea Level Pressure 30.16 in    
Wind  
Wind Speed 6 mph (ESE)    
Max Wind Speed 10 mph    
Max Gust Speed -    
Visibility 10 miles    
Events      
Averages and records for this station are not official NWS values.
T = Trace of Precipitation, MM = Missing Value Source: NWS Daily Summary

Daily Weather History Graph

Daily Weather History Graph

Search for Another Location

Airport:

Trip Planner

Search our weather history database for the weather conditions in past years. The results will help you decide how hot, cold, wet, or windy it might be!

Date:

Astronomy

Feb. 03, 2014 Rise Set
Actual Time 7:39 AM PST 5:17 PM PST
Civil Twilight 7:05 AM PST 5:50 PM PST
Nautical Twilight 6:28 AM PST 6:27 PM PST
Astronomical Twilight 5:52 AM PST 7:03 PM PST
Moon 9:20 AM PST (2/3) 10:40 PM PST (2/3)
Length of Visible Light 10h 44m
Length of Day
9h 38m
Waxing Crescent, 20% of the Moon is Illuminated
Feb 3
Waxing Crescent
Feb 6
First Quarter
Feb 14
Full
Feb 22
Last Quarter
Mar 1
New

Hourly Weather History & Observations

Time (PST) Temp. Windchill Dew Point Humidity Pressure Visibility Wind Dir Wind Speed Gust Speed Precip Events Conditions
12:53 AM 37.0 °F 31.0 °F 17.1 °F 44% 30.07 in 10.0 mi East 8.1 mph - N/A   Overcast
1:53 AM 37.0 °F 32.4 °F 18.0 °F 46% 30.07 in 10.0 mi ENE 5.8 mph - N/A   Overcast
2:53 AM 36.0 °F 33.3 °F 21.0 °F 55% 30.08 in 10.0 mi East 3.5 mph - N/A   Overcast
3:53 AM 33.1 °F 30.0 °F 25.0 °F 72% 30.09 in 10.0 mi SE 3.5 mph - N/A   Overcast
4:53 AM 36.0 °F 32.1 °F 18.0 °F 48% 30.10 in 10.0 mi Variable 4.6 mph - N/A   Overcast
5:53 AM 36.0 °F 33.3 °F 19.0 °F 50% 30.10 in 10.0 mi Variable 3.5 mph - N/A   Overcast
6:53 AM 35.1 °F 29.3 °F 18.0 °F 50% 30.12 in 10.0 mi East 6.9 mph - N/A   Overcast
7:53 AM 33.1 °F 28.7 °F 21.0 °F 61% 30.14 in 10.0 mi ESE 4.6 mph - N/A   Overcast
8:53 AM 35.1 °F 30.1 °F 16.0 °F 46% 30.17 in 10.0 mi East 5.8 mph - N/A   Overcast
9:53 AM 36.0 °F 29.0 °F 19.0 °F 50% 30.18 in 10.0 mi SE 9.2 mph - N/A   Overcast
10:53 AM 37.0 °F 29.8 °F 16.0 °F 42% 30.19 in 10.0 mi SE 10.4 mph - N/A   Clear
11:53 AM 37.9 °F 32.7 °F 15.1 °F 39% 30.19 in 10.0 mi East 6.9 mph - N/A   Clear
12:53 PM 37.9 °F 32.1 °F 12.0 °F 35% 30.17 in 10.0 mi East 8.1 mph - N/A   Clear
1:53 PM 39.0 °F 34.8 °F 12.9 °F 34% 30.17 in 10.0 mi ESE 5.8 mph - N/A   Clear
2:53 PM 37.9 °F 32.7 °F 10.9 °F 33% 30.18 in 10.0 mi East 6.9 mph - N/A   Clear
3:53 PM 37.0 °F 33.3 °F 12.0 °F 36% 30.19 in 10.0 mi East 4.6 mph - N/A   Clear
4:53 PM 33.1 °F 27.7 °F 12.0 °F 42% 30.19 in 10.0 mi SE 5.8 mph - N/A   Clear
5:53 PM 30.0 °F - 17.1 °F 59% 30.20 in 10.0 mi Calm Calm - N/A   Partly Cloudy
6:53 PM 28.0 °F - 19.0 °F 69% 30.20 in 10.0 mi Calm Calm - N/A   Scattered Clouds
7:53 PM 30.0 °F 25.2 °F 15.1 °F 54% 30.22 in 10.0 mi SE 4.6 mph - N/A   Clear
8:53 PM 27.0 °F 21.6 °F 17.1 °F 66% 30.22 in 10.0 mi SW 4.6 mph - N/A   Clear
9:53 PM 27.0 °F - 18.0 °F 69% 30.22 in 10.0 mi North - - N/A   Clear
10:53 PM 25.0 °F - 17.1 °F 72% 30.24 in 10.0 mi North - - N/A   Clear
11:53 PM 25.0 °F 19.3 °F 17.1 °F 72% 30.25 in 10.0 mi WSW 4.6 mph - N/A   Unknown